Weather History for Racine, WI

Change the Weather History Date:

Thursday, March 21, 2013

  Actual Average Record
Temperature  
Mean Temperature 21 °F -  
Max Temperature 30 °F 42 °F 77 °F (2012)
Min Temperature 12 °F 28 °F 3 °F (1965)
Degree Days  
Heating Degree Days 44    
Moisture  
Dew Point 8 °F    
Average Humidity 54    
Maximum Humidity 62    
Minimum Humidity 43    
Precipitation  
Precipitation 0.00 in - - ()
Sea Level Pressure  
Sea Level Pressure 30.05 in    
Wind  
Wind Speed 8 mph (WNW)    
Max Wind Speed 15 mph    
Max Gust Speed 20 mph    
Visibility 10 miles    
Events      
Averages and records for this station are not official NWS values.
T = Trace of Precipitation, MM = Missing Value Source: NWS Daily Summary

Daily Weather History Graph

Daily Weather History Graph

Search for Another Location

Airport:

Trip Planner

Search our weather history database for the weather conditions in past years. The results will help you decide how hot, cold, wet, or windy it might be!

Date:

Astronomy

Mar. 21, 2013 Rise Set
Actual Time 6:52 AM CDT 7:05 PM CDT
Civil Twilight 6:24 AM CDT 7:33 PM CDT
Nautical Twilight 5:51 AM CDT 8:06 PM CDT
Astronomical Twilight 5:17 AM CDT 8:40 PM CDT
Moon 1:28 PM CDT 3:20 AM CDT
Length of Visible Light 13h 09m
Length of Day
12h 12m
Waxing Gibbous, 69% of the Moon is Illuminated
Mar 21
Waxing Gibbous
Mar 27
Full
Apr 2
Last Quarter
Apr 10
New
Apr 18
First Quarter

Hourly Weather History & Observations

Time (CDT) Temp. Windchill Dew Point Humidity Pressure Visibility Wind Dir Wind Speed Gust Speed Precip Events Conditions
1:53 AM 16.0 °F 6.3 °F 1.9 °F 54% 30.05 in 10.0 mi WNW 6.9 mph - N/A   Clear
2:53 AM 15.1 °F 4.2 °F 1.9 °F 56% 30.05 in 10.0 mi WNW 8.1 mph - N/A   Clear
3:53 AM 14.0 °F 3.9 °F 1.9 °F 59% 30.03 in 10.0 mi WNW 6.9 mph - N/A   Clear
4:53 AM 12.9 °F 1.6 °F 1.9 °F 62% 30.03 in 10.0 mi WNW 8.1 mph - N/A   Clear
5:53 AM 12.9 °F 0.7 °F 1.9 °F 62% 30.04 in 10.0 mi West 9.2 mph - N/A   Clear
6:53 AM 12.9 °F -0.2 °F 1.9 °F 62% 30.04 in 10.0 mi West 10.4 mph - N/A   Clear
7:53 AM 14.0 °F 1.2 °F 3.0 °F 62% 30.04 in 10.0 mi WNW 10.4 mph - N/A   Clear
8:53 AM 17.1 °F 5.0 °F 5.0 °F 59% 30.04 in 10.0 mi WNW 10.4 mph - N/A   Clear
9:53 AM 21.0 °F 9.3 °F 7.0 °F 55% 30.05 in 10.0 mi West 11.5 mph - N/A   Clear
10:53 AM 24.1 °F 13.1 °F 9.0 °F 53% 30.06 in 10.0 mi West 11.5 mph 19.6 mph N/A   Clear
11:53 AM 26.1 °F 15.0 °F 10.0 °F 51% 30.06 in 10.0 mi West 12.7 mph - N/A   Clear
12:53 PM 28.0 °F 18.6 °F 10.9 °F 49% 30.07 in 10.0 mi NW 10.4 mph 19.6 mph N/A   Clear
1:53 PM 30.0 °F 21.1 °F 12.0 °F 47% 30.05 in 10.0 mi NNW 10.4 mph 19.6 mph N/A   Clear
2:53 PM 30.0 °F 20.0 °F 10.9 °F 45% 30.04 in 10.0 mi West 12.7 mph - N/A   Clear
3:53 PM 30.0 °F 19.1 °F 10.9 °F 45% 30.04 in 10.0 mi WNW 15.0 mph - N/A   Clear
4:53 PM 30.9 °F 21.7 °F 10.9 °F 43% 30.04 in 10.0 mi WNW 11.5 mph 17.3 mph N/A   Clear
5:53 PM 30.0 °F 23.2 °F 10.9 °F 45% 30.03 in 10.0 mi WNW 6.9 mph - N/A   Clear
6:53 PM 28.9 °F 21.9 °F 10.9 °F 47% 30.04 in 10.0 mi NW 6.9 mph - N/A   Clear
7:53 PM 27.0 °F - 10.9 °F 51% 30.04 in 10.0 mi Calm Calm - N/A   Clear
8:53 PM 26.1 °F 21.9 °F 10.0 °F 51% 30.06 in 10.0 mi WNW 3.5 mph - N/A   Clear
9:53 PM 24.1 °F - 10.0 °F 55% 30.07 in 10.0 mi Calm Calm - N/A   Clear
10:53 PM 23.0 °F 17.0 °F 10.9 °F 60% 30.06 in 10.0 mi West 4.6 mph - N/A   Clear
11:53 PM 21.9 °F 15.7 °F 10.0 °F 60% 30.06 in 10.0 mi West 4.6 mph - N/A   Clear